Regional Weather Roundup
Issued by NWS

Home | Current Version | Previous Version | Text Only | Print | Product List | Glossary Off
Versions: 1 2 3 4 5 6 7 8 9 10 11 12 13 14 15 16 17 18 19 20 21 22 23 24 25 26 27 28 29 30 31 32 33 34 35 36 37 38 39 40 41 42 43 44 45 46 47 48 49 50

000
ASUS43 KLMK 250710
RWRKY
KENTUCKY REGIONAL WEATHER ROUNDUP
NATIONAL WEATHER SERVICE LOUISVILLE KY
300 AM EDT WED MAY 25 2016

NOTE "FAIR" INDICATES FEW OR NO CLOUDS BELOW 12,000 FEET
WITH NO SIGNIFICANT WEATHER AND/OR OBSTRUCTIONS TO VISIBILITY.

KYZ001>023-026-027-061>063-070>075-250800-
WESTERN AND SOUTH CENTRAL KENTUCKY

CITY           SKY/WX    TMP DP  RH WIND       PRES   REMARKS
PADUCAH        CLOUDY    67  61  81 CALM      30.03R
HENDERSON      CLEAR     64  59  82 CALM      30.03S
OWENSBORO      PTCLDY    69  61  76 SE3       30.05S
HOPKINSVILLE   CLOUDY    70  61  71 E5        30.03S
BOWLING GREEN  CLEAR     67  61  81 CALM      30.07F
GLASGOW        MOCLDY    63  56  78 CALM      30.09S
$$

KYZ024-025-028>034-038-045-046-053-250800-
NORTH CENTRAL KENTUCKY

CITY           SKY/WX    TMP DP  RH WIND       PRES   REMARKS
LOUISVILLE/SDF PTCLDY    69  56  62 SE6       30.07S
LOUISVILLE/LOU MOCLDY    69  57  65 CALM      30.08S
FORT KNOX      NOT AVBL
$$

KYZ035>037-039>044-047>052-055>060-089>105-250800-
NORTHEAST KENTUCKY

CITY           SKY/WX    TMP DP  RH WIND       PRES   REMARKS
LEXINGTON      CLEAR     64  50  60 SE7       30.12S
COVINGTON      PTCLDY    62  51  67 S5        30.09S
FRANKFORT      PTCLDY    64  52  64 SE5       30.09S
$$

KYZ054-064>069-076>088-106>120-250800-
SOUTHEAST KENTUCKY

CITY           SKY/WX    TMP DP  RH WIND       PRES   REMARKS
JACKSON        CLEAR     62  47  57 S5        30.16S
LONDON         CLEAR     58  50  75 CALM      30.15S
SOMERSET       CLEAR     55  54  94 CALM      30.14S
MIDDLESBORO    CLEAR     53  51  95 CALM      30.19S
MONTICELLO     SUNNY     60  55  83 W10       30.14S
$$





USA.gov is the U.S. government's official web portal to all federal, state and local government web resources and services.